This demonstration page uses our WeatherBlox Daily Observations layout. Learn more.

Left ArrowRight Arrow

39.51506, -84.39828

Hourly Observations for August 1, 2020

Temp ( °F °C ) Dew Point ( °F °C ) Humidity (%) Winds ( mph kmh ) Pressure ( in mb ) Visibility ( mi km ) Precip ( " mm )
12:15 am 00:15 Cloudy 74 23.6 63 17.3 68 68 NNE 5 7 29.87 1011 10 16.0934 0 0
12:35 am 00:35 Cloudy 74 23.3 64 17.6 70 70 NE 3 6 29.87 1011 10 16.0934 0 0
12:55 am 00:55 Cloudy 74 23.4 64 17.6 70 70 NE 5 7 29.87 1011 10 16.0934 0 0
1:15 am 01:15 Cloudy 74 23.3 63 17.4 70 70 ENE 6 9 29.86 1011 10 16.0934 0 0
1:35 am 01:35 Cloudy 74 23.3 63 17.1 68 68 NNE 5 7 29.87 1011 10 16.0934 0 0
1:55 am 01:55 Cloudy 74 23.1 63 17.1 69 69 NNE 5 7 29.86 1011 10 16.0934 0 0
2:15 am 02:15 Cloudy 73 23 62 16.8 68 68 N 3 6 29.86 1011 10 16.0934 0 0
2:35 am 02:35 Cloudy 73 22.9 63 17 69 69 NNE 5 7 29.85 1011 10 16.0934 0 0
2:55 am 02:55 Cloudy 73 22.6 63 17.3 72 72 NNE 3 6 29.85 1011 10 16.0934 0 0
3:15 am 03:15 Cloudy 73 22.5 64 17.8 75 75 NNE 3 6 29.84 1010 10 16.0934 0 0
3:35 am 03:35 Cloudy 73 22.5 64 18 76 76 Calm 29.83 1010 10 16.0934 0 0
3:55 am 03:55 Mostly Cloudy 72 22.3 64 18 77 77 Calm 29.82 1010 10 16.0934 0 0
4:15 am 04:15 Cloudy with Haze 72 22.2 65 18.6 80 80 Calm 29.82 1010 7 11.26538 0 0
4:35 am 04:35 Mostly Cloudy 72 22.1 66 18.9 82 82 Calm 29.83 1010 10 16.0934 0 0
4:55 am 04:55 Cloudy 72 22.2 65 18.6 80 80 Calm 29.83 1010 10 16.0934 0 0
5:15 am 05:15 Cloudy 72 22.3 66 18.8 81 81 Calm 29.84 1010 10 16.0934 0 0
5:35 am 05:35 Partly Cloudy 72 22 66 18.9 83 83 E 6 9 29.83 1010 10 16.0934 0 0
5:55 am 05:55 Cloudy 71 21.8 66 19.1 85 85 Calm 29.84 1011 10 16.0934 0 0
6:15 am 06:15 Cloudy 70 21.3 67 19.4 89 89 Calm 29.84 1011 10 16.0934 0 0
6:35 am 06:35 Cloudy 70 21.1 67 19.5 91 91 Calm 29.84 1011 10 16.0934 0 0
6:55 am 06:55 Cloudy 70 21.1 67 19.7 92 92 ENE 5 7 29.84 1011 10 16.0934 0 0
7:15 am 07:15 Cloudy 70 21.1 68 19.8 92 92 Calm 29.84 1011 10 16.0934 0 0
7:35 am 07:35 Cloudy 70 21.2 68 20 93 93 ENE 3 6 29.85 1011 10 16.0934 0 0
7:55 am 07:55 Cloudy 71 21.4 68 20 92 92 ENE 3 6 29.85 1011 10 16.0934 0 0
8:15 am 08:15 Cloudy 71 21.6 68 20.1 91 91 ENE 3 6 29.84 1011 10 16.0934 0 0
8:35 am 08:35 Cloudy 71 21.9 69 20.3 91 91 ENE 3 6 29.84 1011 10 16.0934 0 0
8:55 am 08:55 Cloudy 72 22.2 69 20.4 90 90 Calm 29.84 1010 10 16.0934 0 0
9:15 am 09:15 Cloudy 73 22.6 69 20.8 90 90 Calm 29.84 1010 10 16.0934 0 0
9:35 am 09:35 Cloudy 73 22.9 70 21.1 90 90 Calm 29.84 1010 10 16.0934 0 0
9:55 am 09:55 Cloudy 74 23.3 71 21.6 90 90 S 3 6 29.84 1010 10 16.0934 0 0
10:15 am 10:15 Cloudy 76 24.4 72 22.3 88 88 S 5 7 29.83 1010 10 16.0934 0 0
10:35 am 10:35 Cloudy 77 24.8 73 22.5 87 87 SSE 6 9 29.83 1010 10 16.0934 0 0
10:55 am 10:55 Cloudy 78 25.3 73 22.6 85 85 SW 7 11 29.82 1010 10 16.0934 0 0
11:15 am 11:15 Cloudy 78 25.5 72 22.3 83 83 SW 6 9 29.82 1010 10 16.0934 0 0
11:35 am 11:35 Cloudy 78 25.7 72 22.2 81 81 SW 7 11 29.82 1010 10 16.0934 0 0
11:55 am 11:55 Cloudy 78 25.8 72 22 80 80 SW 5 7 29.82 1010 10 16.0934 0 0
12:15 pm 12:15 Cloudy 79 26.2 73 22.6 81 81 SSW 3 6 29.82 1010 10 16.0934 0 0
12:35 pm 12:35 Cloudy 79 26.1 73 22.6 81 81 SW 3 6 29.82 1010 10 16.0934 0 0
12:55 pm 12:55 Cloudy with Haze 81 27.2 73 22.5 76 76 SW 3 6 29.81 1009 7 11.26538 0 0
1:15 pm 13:15 Mostly Cloudy 83 28.2 74 23.3 75 75 SSE 5 7 29.8 1009 10 16.0934 0 0
1:35 pm 13:35 Mostly Cloudy 82 28 73 22.5 72 72 S 8 13 29.79 1009 10 16.0934 0 0
1:55 pm 13:55 Mostly Cloudy 83 28.1 72 22.4 71 71 SSE 8 13 29.78 1008 10 16.0934 0 0
2:15 pm 14:15 Cloudy 82 27.9 73 22.5 73 73 S 8 13 29.77 1008 10 16.0934 0 0
2:35 pm 14:35 Cloudy 83 28.5 73 23 72 72 SE 10 17 29.76 1008 10 16.0934 0 0
2:55 pm 14:55 Mostly Cloudy 83 28.1 72 22.3 71 71 S 8 13 29.76 1008 10 16.0934 0 0
3:15 pm 15:15 Cloudy 79 26.3 73 22.8 81 81 WNW 6 9 29.75 1007 10 16.0934 0 0
3:35 pm 15:35 Cloudy with Rain 79 26.1 74 23.5 86 86 W 6 9 29.75 1007 7 11.26538 0 0
3:55 pm 15:55 Cloudy with Heavy Rain 75 23.9 74 23.2 96 96 NW 6 9 29.75 1007 4 6.43736 0 0
4:15 pm 16:15 Mostly Cloudy with Nearby Thunderstorms 77 25.2 74 23.4 90 90 ESE 5 7 29.74 1007 10 16.0934 0 0
4:35 pm 16:35 Sunny 81 27 73 22.7 77 77 Calm 29.73 1007 10 16.0934 0 0
4:55 pm 16:55 Partly Cloudy with Thunderstorms 82 27.5 74 23.1 77 77 SE 5 7 29.72 1006 10 16.0934 0 0
5:15 pm 17:15 Cloudy 82 27.5 75 23.8 80 80 SSW 3 6 29.72 1006 10 16.0934 0 0
5:35 pm 17:35 Cloudy with Nearby Thunderstorms 81 27.4 73 23 77 77 WSW 8 13 29.74 1007 10 16.0934 0.01 0.254
5:55 pm 17:55 Mostly Cloudy 78 25.4 73 23 87 87 WNW 8 13 29.73 1007 10 16.0934 0.01 0.254
6:15 pm 18:15 Mostly Cloudy 78 25.6 73 22.5 83 83 WNW 3 6 29.73 1007 10 16.0934 0.01 0.254
6:35 pm 18:35 Partly Cloudy 78 25.6 73 22.7 84 84 NNW 6 9 29.74 1007 10 16.0934 0.01 0.254
6:55 pm 18:55 Mostly Cloudy 78 25.7 73 22.8 84 84 WNW 5 7 29.73 1007 10 16.0934 0.02 0.508
7:15 pm 19:15 Mostly Cloudy 78 25.8 73 22.9 84 84 Calm 29.74 1007 10 16.0934 0.01 0.254
7:35 pm 19:35 Mostly Cloudy 78 25.6 73 22.6 84 84 Calm 29.74 1007 10 16.0934 0.01 0.254
7:55 pm 19:55 Partly Cloudy with Light Rain 77 24.9 72 22.3 86 86 S 15 24 29.75 1008 10 16.0934 0.02 0.508
8:15 pm 20:15 Cloudy with Heavy Rain 72 22.1 71 21.7 98 98 SSW 9 15 29.76 1008 3 4.82802 0 0
8:35 pm 20:35 Mostly Cloudy 73 22.5 72 22.1 98 98 SSW 5 7 29.75 1007 10 16.0934 0.01 0.254
8:55 pm 20:55 Clear 72 22.4 71 21.9 97 97 Calm 29.75 1007 10 16.0934 0.02 0.508
9:15 pm 21:15 Partly Cloudy 72 22.4 72 22 98 98 SSW 3 6 29.75 1007 10 16.0934 0.02 0.508
9:35 pm 21:35 Partly Cloudy 73 22.5 72 22.2 98 98 SSW 6 9 29.76 1008 10 16.0934 0.03 0.762
9:55 pm 21:55 Partly Cloudy 73 22.5 72 22.2 98 98 SSW 5 7 29.76 1008 10 16.0934 0.03 0.762
10:15 pm 22:15 Partly Cloudy 73 22.5 72 22.2 98 98 SSW 6 9 29.76 1008 10 16.0934 0 0
10:35 pm 22:35 Mostly Cloudy 73 22.7 72 22.3 98 98 SSW 6 9 29.76 1008 10 16.0934 0.01 0.254
10:55 pm 22:55 Cloudy 73 22.7 72 22.4 98 98 SSW 8 13 29.76 1008 10 16.0934 0.01 0.254
11:15 pm 23:15 Mostly Cloudy 73 22.6 72 22.3 98 98 S 5 7 29.76 1008 10 16.0934 0.01 0.254
11:35 pm 23:35 Partly Cloudy 73 22.6 72 22.3 98 98 SW 3 6 29.75 1007 10 16.0934 0.01 0.254
11:55 pm 23:55 Mostly Cloudy 73 22.6 72 22.4 99 99 S 5 7 29.75 1007 10 16.0934 0.02 0.508

Powered by AerisWeather